User: anonymous   Login
Location: Unspecified
(0.0000°N, 0.0000°E)
Time: 10:14:32
(UTC+00:00)
Language:

COSMOS 2481 - Orbit

View from above orbital plane
View from above orbital plane
View from above satellite
View from above satellite

Ground track
Ground track

The orbit data is extracted from the following two-line orbital elements,

1 38733U 12041A   17080.88985411 +.00000034 +00000-0 +17563-3 0  9994
2 38733 082.4786 018.8044 0017283 222.3760 137.5983 12.42369755210822
Epoch (UTC): 21 March 2017 21:21:23
Eccentricity: 0.0017283
inclination: 82.4786°
perigee height: 1483 km
apogee height: 1510 km
right ascension of ascending node: 18.8044°
argument of perigee: 222.3760°
revolutions per day: 12.42369755
mean anomaly at epoch: 137.5983°
orbit number at epoch: 21082

The dashed part of the orbit path shows where the satellite is in the earth's shadow,  

DLR